Regional Weather Roundup
Issued by NWS Austin/San Antonio, TX

Home | Current Version | Previous Version | Text Only | Print | Product List | Glossary On
Versions: 1 2 3 4 5 6 7 8 9 10 11 12 13 14 15 16 17 18 19 20 21 22 23 24 25 26 27 28 29 30 31 32 33 34 35 36 37 38 39 40 41 42 43 44 45 46 47 48 49 50
815
ASUS44 KEWX 271401
RWREWX
SOUTH TEXAS REGIONAL WEATHER ROUNDUP
NATIONAL WEATHER SERVICE AUSTIN/SAN ANTONIO TX
900 AM CDT SUN MAY 27 2018

NOTE: "FAIR" INDICATED FEW OR NO CLOUDS BELOW 12,000 FEET WITH NO
SIGNIFICANT WEATHER AND/OR OBSTRUCTIONS TO VISIBILITY.

* - THESE STATIONS ARE NOT NWS OR FAA STATIONS...AND ARE NOT SUBJECT
    TO NWS AND FAA QUALITY CONTROL.

TXZ171-172-183>190-271500-
TEXAS HILL COUNTRY AND EDWARDS PLATEAU

CITY           SKY/WX    TMP DP  RH WIND       PRES   REMARKS
JUNCTION       SUNNY     79  65  62 CALM      29.86R
*LLANO         SUNNY     81  66  61 CALM      29.88R
BURNET         SUNNY     80  64  58 S5        29.88R
*HORSESHOE BAY SUNNY     80  65  58 MISG      29.86R
*KERRVILLE     SUNNY     76  69  77 SE6       29.87R
*FREDERICKSBRG SUNNY     77  65  65 S8        29.88R
*ROCKSPRINGS   SUNNY     77  66  69 S13G20    29.92R
*BOERNE STAGE  SUNNY     75  68  78 S6        29.89R
*CASTROVILLE   CLOUDY    75  72  91 SE5       29.86R
HONDO          SUNNY     78  73  84 E7        29.84R
*UVALDE        SUNNY     78  69  75 E9        29.84R
DEL RIO        SUNNY     81  69  67 SE12      29.79R
LAUGHLIN AFB   MOSUNNY   81  69  66 SE10      29.80R
CARRIZO SPRGS  SUNNY     79  68  69 SE7       29.79R
*EAGLE PASS    SUNNY     82  66  57 SE7       29.80R
*FAITH RANCH   SUNNY     81  70  69 SE7       29.79R
$$

TXZ173-191>194-202-209-217>225-228-271500-
CENTRAL AND SOUTH CENTRAL TEXAS

CITY           SKY/WX    TMP DP  RH WIND       PRES   REMARKS
GEORGETOWN     CLOUDY    79  69  71 VRB6      29.87R
AUSTIN/BERGSTM MOSUNNY   79  72  79 S8        29.84R
AUSTIN/MABRY   MOSUNNY   79  71  76 VRB3      29.86R
*AUSTIN/EXEC   MOSUNNY   77  73  88 MISG      29.86R
*LAGO VISTA    SUNNY     79  68  69 S3        29.87R
SAN MARCOS     PTSUNNY   78  72  81 S8        29.86R
NEW BRAUNFELS  PTSUNNY   77  71  82 SW10      29.84R
RANDOLPH AFB   PTSUNNY   77  72  83 SW6       29.84S
PT SAN ANTONIO PTSUNNY   78  71  81 S6        29.83R
SAN ANTONIO    PTSUNNY   78  70  76 S7        29.85R
STINSON FIELD  PTSUNNY   79  72  79 SE5       29.83R
*LA GRANGE     PTSUNNY   80  75  86 SW3       29.83R
*GIDDINGS      MOSUNNY   76  70  82 SW6       29.86R
*GONZALES      PTSUNNY   78  75  91 S5        29.83R
$$

TXZ163>164-176>182-195>201-210>213-226-227-235-271500-
SOUTHEAST TEXAS

CITY           SKY/WX    TMP DP  RH WIND       PRES   REMARKS
COLLEGE STN    PTSUNNY   78  73  84 S6        29.85R
*BRYAN         MOSUNNY   78  74  88 SW7       29.86S
*CALDWELL      PTSUNNY   79  73  81 SW7       29.85S
*CROCKETT      LGT RAIN  75  68  78 CALM      29.89R
*BRENHAM       PTSUNNY   79  73  81 CALM      29.85S
HUNTSVILLE     CLOUDY    77  70  79 VRB5      29.86R
CONROE         PTSUNNY   78  73  84 CALM      29.86R
HOUSTON BUSH   PTSUNNY   79  75  87 CALM      29.85R
HOUSTON HOBBY  FAIR      79  77  94 SW5       29.83R
*HOUSTON SW AP FAIR      78  75  89 CALM      29.85R
PEARLAND       FAIR      81  76  84 VRB5      29.85R
HOUSTON HOOKS  FAIR      78  73  84 CALM      29.85R
ELLINGTON FLD  NOT AVBL
SUGAR LAND     FAIR      82  75  79 SW5       29.84R
*HOUSTON EXEC    N/A     81  75  83 CALM      29.86R
*CLEVELAND MUN FAIR      74  70  86 CALM      29.86R
*WHARTON       SUNNY     79  74  85 CALM      29.84S
*COLUMBUS      CLOUDY    78  75  90 SW5       29.85R
*EAGLE LAKE    CLOUDY    78  75  92 CALM      29.84R
$$

TXZ214>216-236>238-271500-
THE UPPER TEXAS COAST

CITY           SKY/WX    TMP DP  RH WIND       PRES   REMARKS
*ORANGE        FAIR      78  78  99 CALM      29.86R
PORT ARTHUR    FAIR      82  74  76 CALM      29.83R
GALVESTON      PTSUNNY   82  76  81 W3        29.84R
ANGLETON       FAIR      81  75  82 CALM      29.84R
*BAY CITY      SUNNY     81  76  84 SW5       29.83R
PALACIOS       MOSUNNY   83  75  77 S9        29.82R HX  90
$$

TXZ229>234-239>247-271500-
TEXAS COASTAL BEND AND RIO GRANDE PLAINS

CITY           SKY/WX    TMP DP  RH WIND       PRES   REMARKS
VICTORIA       MOSUNNY   81  73  76 SW7       29.83R
*BEEVILLE      CLOUDY    78  74  88 S9        29.82R
ROCKPORT       MOSUNNY   83  73  72 VRB6      29.81R
*PORT ARANSAS    N/A    N/A N/A N/A MISG        N/A
*PORT LAVACA   SUNNY     80  74  81 SW6       29.83R
*INGLESIDE     MOSUNNY   83  75  75 W7        29.82R HX  91
CORPUS CHRISTI MOSUNNY   81  76  84 S8        29.81R
CORPUS NAS     MOSUNNY   84  76  76 S9        29.81R HX  93
*ROBSTOWN      SUNNY     79  75  86 S8        29.81S
ALICE          CLOUDY    79  73  82 S8        29.81R
KINGSVILLE NAS CLOUDY    81  74  79 S8        29.81R
COTULLA        SUNNY     80  71  74 SE10      29.80R
LAREDO         SUNNY     82  71  69 E8        29.80R
$$

TXZ248>255-271500-
DEEP SOUTH TEXAS

CITY           SKY/WX    TMP DP  RH WIND       PRES   REMARKS
BROWNSVILLE    FAIR      85  75  72 S10       29.80R HX  93
PORT ISABEL    FAIR      85  71  63 S12G21    29.79R HX  90
*SOUTH PADRE   NOT AVBL
HARLINGEN      SUNNY     83  75  77 SW13      29.79R HX  90
*HEBBRONVILLE  SUNNY     77  71  81 S6        29.81R
MCALLEN        SUNNY     83  76  79 SE14      29.80R HX  91
*WESLACO       NOT AVBL
FALFURRIAS     PTSUNNY   81  73  78 S9        29.80R
EDINBURG       FAIR      83  73  72 S9        29.80S
*ZAPATA        FAIR      80  70  70 S12G17    29.78
$$

TXZ213>215-236>238-242>244-246-247-251-254-255-271500-
CMAN STATIONS

STATION/POSITION TIME  TEMP    WIND        PRES    WAVE
                       AIR SEA DIR/SP/G            HT/PER
                 (UTC) (F)     (DEG/KT/KT) (MB)    (FT/S)
SABINE PASS      1330   82 87  270/  3/  6 1011.8
SEA RIM ST PARK  1300   79     350/  2/  2 1010.4
NORTH JETTY/GLS  1330   81 82  200/  2/  3 1009.4
EAGLE POINT      1330   80 85  250/  4/  5 1010.0
MORGANS POINT    1330   79 83  290/  3/  5 1010.0
PORT O`CONNOR    1330   80 85  210/  6/  9 1009.4
PORT ARANSAS     1300   80 83  170/ 12/ 13 1008.9
MALAQUITE BEACH  1330   80 84  190/  5/  8 1009.0
BAFFIN BAY       1330   80 81  160/ 11/ 13 1009.4
PORT ISABEL      1330   81 84  190/  6/ 10 1008.9
$$




USA.gov is the U.S. government's official web portal to all federal, state and local government web resources and services.